Regional Weather Roundup
Issued by NWS Newport/Morehead, NC

Current Version | Previous Version | Text Only | Print | Product List | Glossary Off
Versions: 1 2 3 4 5 6 7 8 9 10 11 12 13 14 15 16 17 18 19 20 21 22 23 24 25 26 27 28 29 30 31 32 33 34 35 36 37 38 39 40 41 42 43 44 45 46 47 48 49 50
797 ASUS42 KMHX 240725 RWRMHX WEATHER ROUNDUP FOR EASTERN NORTH CAROLINA NATIONAL WEATHER SERVICE NEWPORT/MOREHEAD CITY NC 200 AM EST FRI FEB 24 2017 NOTE: "FAIR" INDICATES FEW OR NO CLOUDS BELOW 12,000 FEET WITH NO SIGNIFICANT WEATHER AND/OR OBSTRUCTIONS TO VISIBILITY NCZ015>017-031-032-045>047-102-103-240800- NORTH COAST CITY SKY/WX TMP DP RH WIND PRES REMARKS EDENTON PTCLDY 55 52 89 E3 29.94F ELIZABETH CITY CLOUDY 55 54 96 CALM 29.95S KITTY HAWK NOT AVBL MANTEO CLOUDY 60 57 90 SE3 29.95S $$ NCZ045>047-081-094-103-104-240800- CENTRAL COAST CITY SKY/WX TMP DP RH WIND PRES REMARKS FRISCO MOCLDY 66 61 84 SE9 29.93S HAZE $$ NCZ095-097-098-100-101-240800- SOUTHERN COAST CITY SKY/WX TMP DP RH WIND PRES REMARKS BEAUFORT CLOUDY 59 58 96 CALM 29.92S CEDAR ISLAND NOT AVBL JACKSONVILLE PTCLDY 58 58 100 N3 29.92S PINEY ISLAND PTSUNNY N/A N/A N/A N3 29.92S WILMINGTON MOCLDY 57 57 100 NE5 29.90F $$ NCZ011>013-027>030-043-044-078>080-089-090>093-098-240800- COASTAL PLAIN CITY SKY/WX TMP DP RH WIND PRES REMARKS AHOSKIE FOG 49 49 99 CALM 29.94S VSB 1/2 CLINTON CLEAR 53 53 100 CALM 29.93S ELIZABETHTOWN CLEAR 54 54 100 CALM 29.91F GOLDSBORO CLEAR 55 55 100 CALM 29.91F GREENVILLE FOG 50 50 100 CALM 29.95F VSB 1 HAVELOCK NOT AVBL KENANSVILLE NOT AVBL KINSTON PTCLDY 52 51 98 CALM 29.94S FOG NEW BERN CLOUDY 56 56 100 CALM 29.94S RICHLANDS MOCLDY 56 55 97 NE3 29.93S ROCKY MOUNT CLEAR 49 49 100 CALM 29.93F WASHINGTON CLEAR 52 51 97 CALM 29.93F WHITEVILLE PTCLDY 55 53 95 CALM 29.90S $$ AMZ130-135-150-152-154-156-158-170-250-252-270-ANZ085-086-088-633-658-670-240800- MARINE OBSERVATIONS STATION/POSITION TIME TEMP WIND PRES WAVE SWELL AIR SEA DIR/SP/G HT/PER HT/PER (UTC) (F) (DEG/KT/KT) (MB) (FT/S) (FT/S) CHESAPEAKE LIGHT NOT AVBL 64 E VA BEACH 0650 58 54 110/ 6/ 8 1014.2 4/11 3/11 DUCK 0700 54 48 110/ 4/ 5 1013.5 2 E DUCK 0700 50 N/A 4/10 2/12 OREGON INLET 0700 58 56 110/ 2/ 3 1013.8 13E OREGON INLT NOT AVBL HATTERAS CG 0700 65 62 110/ 7/ 11 1012.9 DIAMOND BUOY 0650 68 73 110/ 16/ 19 1012.9 6/ 7 3/ 8 CAPE LOOKOUT 0700 65 130/ 8/ 9 1012.4 BEAUFORT LAB 0700 60 57 360/ 4/ 4 1012.1 30 SE NEW RVR IN 0708 67 120/ 10/ 16 1012.3 30 SE NEW RVR IN 0713 69 N/A 7/ 7 2/11 27 SE WRIGHTSVLE 0708 67 66 60/ 4/ 6 1010.8 5 SE WRIGHTSVLE 0708 59 58 20/ 8/ 12 1012.1 225 S CAPE HAT 0650 69 69 90/ 19/ 25 1008.7 13/ 9 8/ 9 41 SE CHARLESTON 0650 70 70 60/ 10/ 12 1009.8 10/10 10/10 $$

USA.gov is the U.S. government's official web portal to all federal, state and local government web resources and services.